�������r�C�����j�^�v���󋵏��
Date,Time,5�C6���@���p�r�C��,����,����(m/s)
2021/05/06,00:00,3.8,���쐼,6.9
2021/05/06,00:10,3.9,�쐼,7.0
2021/05/06,00:20,4.0,�쐼,7.1
2021/05/06,00:30,4.0,�쐼,4.9
2021/05/06,00:40,3.7,��쐼,5.6
2021/05/06,00:50,3.8,�쐼,4.2
2021/05/06,01:00,3.9,��쐼,3.8
2021/05/06,01:10,3.9,��쐼,3.3
2021/05/06,01:20,4.0,��쓌,3.7
2021/05/06,01:30,4.1,��,1.1
2021/05/06,01:40,4.0,��,1.5
2021/05/06,01:50,3.9,���쐼,2.0
2021/05/06,02:00,4.0,���쐼,2.6
2021/05/06,02:10,3.9,��,3.3
2021/05/06,02:20,4.0,���k��,3.3
2021/05/06,02:30,4.0,���k��,3.7
2021/05/06,02:40,3.8,��,3.9
2021/05/06,02:50,3.8,���k��,3.8
2021/05/06,03:00,3.9,���k��,4.9
2021/05/06,03:10,3.9,���k��,6.0
2021/05/06,03:20,4.0,�k��,4.9
2021/05/06,03:30,3.9,���k��,4.9
2021/05/06,03:40,3.7,���k��,6.4
2021/05/06,03:50,3.9,���k��,5.9
2021/05/06,04:00,4.0,���k��,6.2
2021/05/06,04:10,3.9,���k��,5.9
2021/05/06,04:20,3.9,�k��,5.8
2021/05/06,04:30,3.8,���k��,4.7
2021/05/06,04:40,4.0,�k��,3.0
2021/05/06,04:50,3.9,�k��,4.1
2021/05/06,05:00,3.8,���k��,3.0
2021/05/06,05:10,3.9,���k��,3.0
2021/05/06,05:20,3.9,���k��,3.7
2021/05/06,05:30,3.9,���k��,3.0
2021/05/06,05:40,4.0,���k��,3.6
2021/05/06,05:50,3.9,��,2.9
2021/05/06,06:00,3.8,��,3.9
2021/05/06,06:10,3.8,��,4.2
2021/05/06,06:20,3.9,��,4.5
2021/05/06,06:30,3.7,��,4.8
2021/05/06,06:40,3.8,��,4.9
2021/05/06,06:50,4.0,��,4.7
2021/05/06,07:00,3.8,��,4.7
2021/05/06,07:10,3.8,���k��,4.4
2021/05/06,07:20,3.8,���k��,4.0
2021/05/06,07:30,4.0,���k��,3.4
2021/05/06,07:40,4.0,���k��,2.9
2021/05/06,07:50,4.0,���k��,2.6
2021/05/06,08:00,3.7,�k��,2.2
2021/05/06,08:10,4.0,�k��,0.9
2021/05/06,08:20,3.9,�k,2.0
2021/05/06,08:30,3.9,�k�k��,2.3
2021/05/06,08:40,3.9,�k�k��,2.9
2021/05/06,08:50,3.9,�k�k��,2.6
2021/05/06,09:00,3.7,�k�k��,2.5
2021/05/06,09:10,4.0,���k��,2.0
2021/05/06,09:20,3.8,���k��,2.0
2021/05/06,09:30,3.9,��,2.5
2021/05/06,09:40,3.9,��,2.5
2021/05/06,09:50,4.0,��,2.2
2021/05/06,10:00,3.8,��,2.6
2021/05/06,10:10,3.7,��,3.4
2021/05/06,10:20,4.0,��,3.5
2021/05/06,10:30,3.8,��,3.5
2021/05/06,10:40,3.9,���쓌,3.9
2021/05/06,10:50,3.8,�쓌,4.2
2021/05/06,11:00,3.9,�쓌,4.2
2021/05/06,11:10,3.9,�쓌,4.0
2021/05/06,11:20,4.1,���쓌,4.4
2021/05/06,11:30,3.9,�쓌,3.4
2021/05/06,11:40,3.9,�쓌,3.9
2021/05/06,11:50,3.8,�쓌,3.6
2021/05/06,12:00,3.9,�쓌,4.6
2021/05/06,12:10,3.9,��쓌,5.1
2021/05/06,12:20,3.7,��쓌,5.5
2021/05/06,12:30,3.8,��쓌,4.9
2021/05/06,12:40,3.9,��쓌,4.7
2021/05/06,12:50,3.7,��쓌,5.1
2021/05/06,13:00,3.9,��쓌,5.1
2021/05/06,13:10,3.8,��쓌,5.3
2021/05/06,13:20,3.8,�쓌,4.8
2021/05/06,13:30,4.0,�쓌,3.9
2021/05/06,13:40,3.9,��쓌,4.5
2021/05/06,13:50,3.9,��쓌,4.6
2021/05/06,14:00,4.0,��쓌,6.1
2021/05/06,14:10,3.9,��쓌,5.1
2021/05/06,14:20,3.9,��쓌,5.5
2021/05/06,14:30,3.8,��쓌,5.4
2021/05/06,14:40,3.8,��쓌,6.4
2021/05/06,14:50,3.8,��쓌,6.0
2021/05/06,15:00,3.9,��쓌,4.8
2021/05/06,15:10,4.0,��쓌,6.0
2021/05/06,15:20,3.7,��쓌,6.4
2021/05/06,15:30,4.1,��쓌,6.0
2021/05/06,15:40,3.7,��쓌,6.8
2021/05/06,15:50,3.7,��쓌,5.2
2021/05/06,16:00,3.9,��쓌,5.5
2021/05/06,16:10,3.7,��,5.7
2021/05/06,16:20,3.8,��쓌,5.8
2021/05/06,16:30,3.9,��쓌,5.8
2021/05/06,16:40,3.9,��쓌,5.2
2021/05/06,16:50,3.9,��쓌,5.2
2021/05/06,17:00,3.9,��쓌,5.7
2021/05/06,17:10,3.9,��쓌,7.6
2021/05/06,17:20,3.9,��쓌,7.7
2021/05/06,17:30,4.0,��,7.6
2021/05/06,17:40,4.1,��,6.3
2021/05/06,17:50,4.0,��,5.9
2021/05/06,18:00,4.1,��,6.0
2021/05/06,18:10,4.0,��,6.8
2021/05/06,18:20,4.0,��,6.5
2021/05/06,18:30,3.8,��,6.5
2021/05/06,18:40,4.0,��,7.2
2021/05/06,18:50,3.8,��,6.7
2021/05/06,19:00,4.0,��,6.6
2021/05/06,19:10,4.0,��,5.6
2021/05/06,19:20,3.8,��쐼,5.0
2021/05/06,19:30,3.9,��쐼,4.3
2021/05/06,19:40,3.8,��,4.6
2021/05/06,19:50,4.0,��,5.4
2021/05/06,20:00,3.9,��,6.6
2021/05/06,20:10,4.0,��,7.0
2021/05/06,20:20,3.8,��,6.4
2021/05/06,20:30,3.9,��,6.2
2021/05/06,20:40,4.1,��,5.9
2021/05/06,20:50,3.8,��,6.3
2021/05/06,21:00,3.8,��,6.0
2021/05/06,21:10,3.8,��,5.7
2021/05/06,21:20,3.8,��쐼,6.0
2021/05/06,21:30,3.8,��쐼,6.2
2021/05/06,21:40,4.0,��쐼,7.1
2021/05/06,21:50,3.9,��,7.0
2021/05/06,22:00,4.0,��,6.9
2021/05/06,22:10,3.8,��쐼,6.8
2021/05/06,22:20,3.9,��쐼,5.8
2021/05/06,22:30,4.0,��쐼,4.6
2021/05/06,22:40,3.8,�쐼,4.1
2021/05/06,22:50,3.9,�쐼,4.2
2021/05/06,23:00,3.9,�쐼,4.9
2021/05/06,23:10,3.7,�쐼,5.1
2021/05/06,23:20,3.9,�쐼,4.4
2021/05/06,23:30,3.8,�쐼,4.5
2021/05/06,23:40,3.9,�쐼,5.0
2021/05/06,23:50,3.8,�쐼,4.5
